Observations for Trim Market St
| Time | AQI | Temp °C | Hum % | Pres Pa | CO μg/m³ | H₂S μg/m³ | NO μg/m³ | NO₂ μg/m³ | O₃ μg/m³ | SO₂ μg/m³ | PM1 μg/m³ | PM2.5 μg/m³ | PM10 μg/m³ |
|---|---|---|---|---|---|---|---|---|---|---|---|---|---|
| Tuesday 14 July 2026 | |||||||||||||
| 05:55 | 1 | 16.1 | 77 | 30,030 | 0.17 | 0 | 0 | 4.17 | 18.17 | 0 | 2.85 | 4.63 | 7.53 |
| 05:54 | 1 | 16.1 | 77 | 30,167 | 0.15 | 0 | 0 | 3.97 | 16.4 | 0 | 2.85 | 4.16 | 6.95 |
| 05:53 | 1 | 16.1 | 77 | 30,329 | 0.15 | 0 | 0 | 3.37 | 17.63 | 0 | 4.28 | 5.11 | 9.29 |
| 05:52 | 1 | 16.1 | 77 | 30,440 | 0.15 | 0 | 0 | 3.38 | 17.43 | 0 | 3.56 | 4.16 | 6.94 |
| 05:50 | 1 | 16.1 | 77 | 30,593 | 0.15 | 0 | 0 | 2.88 | 23.77 | 0 | 2.14 | 3.69 | 7.53 |
| 05:44 | 1 | 16.1 | 77 | 31,438 | 0.14 | 0 | 0 | 3.39 | 16.59 | 0 | 2.14 | 3.69 | 6.36 |
| 05:42 | 1 | 16.1 | 77 | 31,749 | 0.13 | 0 | 0 | 3.89 | 16.24 | 0 | 2.14 | 2.74 | 6.36 |
| 05:41 | 1 | 16.2 | 77 | 32,019 | 0.13 | 0 | 0 | 3.58 | 18.93 | 0 | 2.85 | 4.65 | 8.71 |
| 05:36 | 1 | 16.2 | 76 | 33,512 | 0.23 | 0 | 0.74 | 4.59 | 13.22 | 0 | 2.14 | 3.22 | 5.77 |
| 05:33 | 1 | 16.2 | 76 | 33,914 | 0.13 | 0 | 0 | 6.8 | 16.19 | 0 | 2.85 | 5.14 | 8.71 |
| 05:32 | 1 | 16.2 | 76 | 34,145 | 0.14 | 0 | 0 | 3.2 | 15.1 | 0 | 1.43 | 2.75 | 5.18 |
| 05:31 | 1 | 16.2 | 76 | 34,252 | 0.13 | 0 | 0 | 4.2 | 15.8 | 0 | 2.14 | 2.75 | 6.35 |
| 05:30 | 1 | 16.2 | 76 | 34,424 | 0.18 | 0 | 0.29 | 5.51 | 17.29 | 0 | 2.85 | 4.19 | 6.94 |
| 05:29 | 1 | 16.2 | 76 | 34,596 | 0.28 | 0 | 0 | 3.41 | 16.24 | 0 | 3.56 | 4.67 | 7.53 |
| 05:28 | 1 | 16.3 | 76 | 34,646 | 0.12 | 0 | 0 | 3.79 | 16.59 | 0 | 2.85 | 4.19 | 8.71 |
| 05:27 | 1 | 16.2 | 76 | 34,853 | 0.14 | 0 | 0 | 3.81 | 16.46 | 0 | 2.85 | 4.19 | 6.94 |
| 05:26 | 1 | 16.3 | 76 | 34,954 | 0.13 | 0 | 0 | 2.99 | 15.52 | 0 | 2.14 | 4.19 | 6.94 |
| 05:25 | 1 | 16.3 | 76 | 35,086 | 0.12 | 0 | 0 | 4.79 | 18.58 | 0 | 2.14 | 3.71 | 6.94 |
| 05:24 | 1 | 16.3 | 76 | 35,223 | 0.12 | 0 | 0 | 3.9 | 16.69 | 0 | 2.85 | 3.72 | 6.35 |
| 05:23 | 1 | 16.3 | 76 | 35,394 | 0.13 | 0 | 0 | 3.6 | 15.69 | 0 | 1.43 | 4.19 | 7.53 |